This is the latest recevied weather packets stored in our database for station/object KD8BMB. If no packets are shown the sender has not sent any weather packets the latest 10 day(s).
| Time | Temp. | Humidity | Pressure | Rain* | Wind** | Luminosity | Snow |
|---|---|---|---|---|---|---|---|
| 1777939004 | 22.78° C | 44% | 997.3 hPa | 0 mm | - | 30 W/m² | - |
| 1777938701 | 22.78° C | 44% | 997.1 hPa | 0 mm | - | 32 W/m² | - |
| 1777938399 | 22.78° C | 44% | 997.1 hPa | 0 mm | - | 36 W/m² | - |
| 1777938096 | 23.33° C | 44% | 997.2 hPa | 0 mm | - | 41 W/m² | - |
| 1777937791 | 23.33° C | 43% | 997 hPa | 0 mm | - | 39 W/m² | - |
| 1777937487 | 23.89° C | 41% | 997.1 hPa | 0 mm | - | 49 W/m² | - |
| 1777937186 | 23.89° C | 42% | 997.2 hPa | 0 mm | - | 63 W/m² | - |
| 1777936882 | 23.89° C | 42% | 997.5 hPa | 0 mm | - | 77 W/m² | - |
| 1777936579 | 23.89° C | 42% | 997.2 hPa | 0 mm | - | 104 W/m² | - |
| 1777936275 | 23.89° C | 44% | 997.4 hPa | 0 mm | - | 127 W/m² | - |
| 1777935971 | 24.44° C | 43% | 997.3 hPa | 0 mm | - | 137 W/m² | - |
| 1777935670 | 24.44° C | 42% | 997.3 hPa | 0 mm | - | 154 W/m² | - |
| 1777935368 | 24.44° C | 41% | 997.4 hPa | 0 mm | - | 164 W/m² | - |
| 1777935064 | 24.44° C | 40% | 997.3 hPa | 0 mm | - | 193 W/m² | - |
| 1777934761 | 24.44° C | 39% | 997.5 hPa | 0 mm | - | 212 W/m² | - |
| 1777934458 | 24.44° C | 40% | 997.7 hPa | 0 mm | - | 208 W/m² | - |
| 1777934155 | 25° C | 38% | 997.6 hPa | 0 mm | - | 127 W/m² | - |
| 1777933850 | 25° C | 39% | 997.7 hPa | 0 mm | - | 209 W/m² | - |
| 1777933548 | 25° C | 38% | 997.7 hPa | 0 mm | - | 232 W/m² | - |
| 1777933245 | 24.44° C | 37% | 997.9 hPa | 0 mm | - | 225 W/m² | - |
| 1777932942 | 24.44° C | 37% | 997.8 hPa | 0 mm | - | 222 W/m² | - |
| 1777932639 | 24.44° C | 36% | 998.1 hPa | 0 mm | - | 239 W/m² | - |
| 1777932335 | 25° C | 39% | 998.1 hPa | 0 mm | - | 219 W/m² | - |
| 1777932032 | 25° C | 37% | 998.1 hPa | 0 mm | - | 221 W/m² | - |
| 1777931729 | 24.44° C | 37% | 998.3 hPa | 0 mm | - | 260 W/m² | - |
* Rain latest hour (hover to see other rain measurements)
** Current wind speed in m/s (hover to see current wind gust speed)